User: anonymous   Login
Location: Asis
(14.1331°N, 120.9056°E)
Time: 17:53:34
(UTC+00:00)
Language:

CARTOSAT-1 - Orbit

View from above orbital plane
View from above orbital plane
View from above satellite
View from above satellite

Ground track
Ground track

The orbit is defined by the following mean orbital elements,

1 28649U          26068.54739103 +.00000000 +00000-0 +24542-3 0 00006
2 28649  97.5412  96.1008 0002346  69.8165 290.3306 14.90764799    02
Epoch (UTC): 09 March 2026 13:08:14
Eccentricity: 0.0002346
inclination: 97.5412°
perigee height: 594 km
apogee height: 597 km
right ascension of ascending node: 96.1008°
argument of perigee: 69.8165°
revolutions per day: 14.90764799
mean anomaly at epoch: 290.3306°

The dashed part of the orbit path shows where the satellite is in the earth's shadow,  

DLR